FW1140 Weather Reports


Display with metric or nautical units.
time (UTC)temp
F
wind
direction
speed
MPH
gust
MPH
rain 1hr
in
rain 24hr
in
rain mn
in
humidity
%
barometer
mb
20260506231506 48 325 9.0 16.0 0.00 0.00 0.00 44 1013.7
20260506230006 48 317 9.0 15.0 0.00 0.00 0.00 42 1013.8
20260506224505 48 319 7.0 14.0 0.00 0.00 0.00 44 1013.8
20260506223004 49 313 12.0 17.0 0.00 0.00 0.00 43 1013.8
20260506221504 49 338 14.0 20.0 0.00 0.00 0.00 42 1014.0
20260506220003 49 313 11.0 22.0 0.00 0.00 0.00 42 1014.1
20260506214501 49 326 12.0 17.0 0.00 0.00 0.00 42 1014.2
20260506213103 47 340 10.0 18.0 0.00 0.00 0.00 44 1014.3
20260506211558 48 299 12.0 17.0 0.00 0.00 0.00 43 1014.5
20260506210059 48 354 12.0 18.0 0.00 0.00 0.00 44 1014.8
20260506204557 47 341 10.0 16.0 0.00 0.00 0.00 44 1014.9
20260506203114 47 335 5.0 13.0 0.00 0.00 0.00 44 1015.1
20260506201553 46 288 9.0 18.0 0.00 0.00 0.00 44 1015.2
20260506200056 47 273 8.0 17.0 0.00 0.00 0.00 44 1015.3
20260506194553 47 311 13.0 17.0 0.00 0.00 0.00 44 1015.4
20260506193051 45 313 10.0 16.0 0.00 0.00 0.00 46 1015.6
20260506191548 45 258 9.0 19.0 0.00 0.00 0.00 46 1015.7
20260506190050 45 317 12.0 17.0 0.00 0.00 0.00 46 1015.8
20260506184549 44 316 10.0 18.0 0.00 0.00 0.00 47 1015.8
20260506183046 44 304 11.0 20.0 0.00 0.00 0.00 47 1015.9
20260506181550 44 312 15.0 21.0 0.00 0.00 0.00 46 1016.1
20260506180042 44 323 9.0 20.0 0.00 0.00 0.00 46 1016.2
20260506174540 43 276 7.0 17.0 0.00 0.00 0.00 47 1016.3
20260506173044 43 301 10.0 18.0 0.00 0.00 0.00 47 1016.4
20260506171538 42 325 10.0 17.0 0.00 0.00 0.00 49 1016.6
20260506170043 42 314 14.0 20.0 0.00 0.00 0.00 49 1016.7
20260506164549 42 324 10.0 20.0 0.00 0.00 0.00 52 1016.8
20260506163037 42 305 9.0 18.0 0.00 0.00 0.00 49 1016.8
20260506161532 41 319 12.0 20.0 0.00 0.00 0.00 51 1016.6
20260506160033 41 321 9.0 18.0 0.00 0.00 0.00 55 1016.7
20260506154529 41 335 12.0 17.0 0.00 0.00 0.00 55 1016.7
20260506153026 40 350 10.0 14.0 0.00 0.00 0.00 56 1016.7
20260506151525 39 356 9.0 15.0 0.00 0.00 0.00 56 1016.7
20260506150027 40 359 9.0 14.0 0.00 0.00 0.00 55 1016.8
20260506144526 39 347 9.0 15.0 0.00 0.00 0.00 58 1016.6
20260506143020 39 338 10.0 14.0 0.00 0.00 0.00 59 1016.8
20260506141524 38 317 10.0 14.0 0.00 0.00 0.00 61 1016.7
20260506140010 38 315 8.0 15.0 0.00 0.00 0.00 63 1016.8
20260506134506 38 359 8.0 15.0 0.00 0.00 0.00 64 1016.5
20260506133003 38 313 9.0 17.0 0.00 0.00 0.00 62 1016.5
20260506131616 38 314 12.0 18.0 0.00 0.00 0.00 60 1016.5
20260506130058 37 319 7.0 10.0 0.00 0.00 0.00 62 1016.4
20260506124554 37 285 6.0 9.0 0.00 0.00 0.00 62 1016.3
20260506123051 37 293 5.0 9.0 0.00 0.00 0.00 63 1015.9
20260506121554 36 300 4.0 7.0 0.00 0.00 0.00 65 1015.7
20260506120057 36 294 4.0 8.0 0.00 0.00 0.00 65 1015.5
20260506114541 36 333 4.0 10.0 0.00 0.00 0.00 65 1015.3
20260506113038 36 282 6.0 10.0 0.00 0.00 0.00 63 1015.1
20260506111544 36 271 6.0 12.0 0.00 0.00 0.00 63 1014.9
20260506110035 36 267 5.0 8.0 0.00 0.00 0.00 63 1014.8
20260506104542 36 273 6.0 9.0 0.00 0.00 0.00 63 1014.7
20260506103042 36 266 5.0 8.0 0.00 0.00 0.00 66 1014.6
20260506101534 35 298 4.0 6.0 0.00 0.00 0.00 66 1014.6
20260506100033 35 278 4.0 7.0 0.00 0.00 0.00 67 1014.8
20260506094532 34 268 3.0 7.0 0.00 0.00 0.00 68 1014.8
20260506093031 35 264 3.0 6.0 0.00 0.00 0.00 68 1014.8
20260506091528 35 284 3.0 5.0 0.00 0.00 0.00 66 1014.6
20260506090024 36 273 3.0 6.0 0.00 0.00 0.00 66 1014.6
20260506084547 36 311 6.0 9.0 0.00 0.00 0.00 65 1014.5
20260506083023 36 302 5.0 9.0 0.00 0.00 0.00 65 1014.5
20260506081528 36 297 6.0 10.0 0.00 0.00 0.00 65 1014.4
20260506073019 37 295 7.0 11.0 0.00 0.00 0.00 64 1014.5
20260506071517 37 300 7.0 9.0 0.00 0.00 0.00 63 1014.5
20260506061511 37 306 6.0 8.0 0.00 0.00 0.00 65 1014.4
20260506050104 38 330 3.0 9.0 0.00 0.00 0.00 62 1014.1
20260506044559 38 340 6.0 9.0 0.00 0.00 0.00 62 1014.1
20260506044503 38 327 6.0 9.0 0.00 0.00 0.00 62 1014.1
20260506043058 38 314 4.0 7.0 0.00 0.00 0.00 62 1014.0
20260506041608 38 314 3.0 6.0 0.00 0.00 0.00 60 1014.0
20260506040059 39 309 4.0 7.0 0.00 0.00 0.00 58 1014.1
20260506034557 39 298 5.0 7.0 0.00 0.00 0.00 59 1013.9
20260506033053 39 309 5.0 8.0 0.00 0.00 0.00 58 1013.7
20260506031555 39 311 4.0 6.0 0.00 0.00 0.00 58 1013.5
20260506030052 39 321 4.0 6.0 0.00 0.00 0.00 57 1013.4
20260506024549 40 328 5.0 8.0 0.00 0.00 0.00 54 1013.2
20260506023102 41 344 7.0 14.0 0.00 0.00 0.00 53 1013.0
20260506021607 41 359 5.0 9.0 0.00 0.00 0.00 54 1012.7
20260506020044 42 342 5.0 8.0 0.00 0.00 0.00 52 1012.5
20260506014542 42 337 5.0 10.0 0.00 0.00 0.00 53 1012.3
20260506013044 42 329 6.0 11.0 0.00 0.00 0.00 51 1012.3
20260506011548 43 340 7.0 10.0 0.00 0.00 0.00 51 1012.2
20260506010040 43 353 5.0 12.0 0.00 0.00 0.00 50 1012.2
20260506004538 43 359 8.0 15.0 0.00 0.00 0.00 50 1012.1
20260506003039 44 325 9.0 13.0 0.00 0.00 0.00 49 1012.0
20260506001537 44 345 7.0 14.0 0.00 0.00 0.00 48 1011.8
20260506000035 45 324 9.0 18.0 0.00 0.00 0.00 47 1011.8
20260505234535 45 321 11.0 17.0 0.00 0.00 0.00 46 1011.7
20260505233035 45 339 11.0 19.0 0.00 0.00 0.00 46 1011.5